[[{"header":{"parameterUnit":"m.s-1","parameterCategory":1,"la1":30.2991,"la2":30.254,"lo1":-89.0895,"lo2":-89.0444,"dy":0.0017,"dx":0.0017,"nx":28,"ny":28,"refTime":"2025-06-04T09:00:00:Z","depth":0,"parameterNumber":2,"parameterNumberName":"U-component_of_WINDS"},"data":[0,0,0,0,0,0,0,0,0,0,0,0,0,0,0,0,0,0,0,0,0,0,0,0,0,0,0,0,0,0,0,0,0,0,0,0,0,0,0,0,0,0,0,0,0,0,0,0,0,0,0,0,0,0,0,0,0,0,-3.8894,-3.8894,0,-3.896,-3.8961,-3.8961,-3.8911,-3.8909,-3.8907,-3.8905,-3.8972,-3.8975,-3.8979,0,0,0,0,0,0,0,0,0,0,0,0,0,-3.8724,-3.8728,-3.8894,-3.8894,-3.8895,-3.896,-3.8961,-3.8962,-3.8912,-3.8909,-3.8906,-3.8904,-3.897,-3.8975,-3.8979,0,0,0,0,0,0,0,0,0,0,0,0,0,-3.8795,-3.8729,-3.8893,-3.8878,-3.8877,-3.896,-3.8961,-3.8962,-3.8912,-3.8909,-3.8906,-3.8903,-3.8969,-3.8974,-3.898,-3.908,0,0,-3.8997,-3.9,0,0,0,0,0,0,0,0,-3.8791,-3.8801,-3.888,-3.8879,-3.8879,-3.8924,-3.8925,-3.9001,-3.8913,-3.8899,-3.8905,-3.8901,-3.8958,-3.8965,-3.8984,-3.9083,-3.9086,-3.8998,-3.9001,-3.9004,-3.9005,0,0,0,0,0,0,0,-3.8786,-3.8798,-3.892,-3.8881,-3.888,-3.8868,-3.8875,-3.894,-3.8946,-3.89,-3.8896,-3.8905,-3.8957,-3.8979,-3.8985,-3.9087,-3.8998,-3.9003,-3.9006,-3.9009,-3.9273,-3.9276,0,0,0,0,0,0,-3.8783,-3.8794,-3.8918,-3.8922,-3.8826,-3.8874,-3.8881,-3.8913,-3.8945,-3.8947,-3.8908,-3.8903,-3.8971,-3.8979,-3.8988,-3.9107,-3.9004,-3.9009,-3.9012,-3.9269,-3.9274,-3.9278,0,0,0,0,0,0,-3.8779,-3.8794,-3.8915,-3.8857,-3.8872,-3.888,-3.8916,-3.8916,-3.8937,-3.8951,-3.8952,-3.8928,-3.8968,-3.898,-3.9058,-3.9108,-3.9012,-3.9017,-3.9265,-3.9271,-3.9276,-3.9346,0,0,0,0,0,0,-3.8775,-3.8793,-3.8831,-3.8858,-3.8875,-3.8984,-3.8919,-3.8919,-3.8947,-3.8941,-3.8971,-3.8972,-3.8967,-3.905,-3.9064,-3.9114,-3.9021,-3.9261,-3.9268,-3.9274,-3.9339,-3.9353,-3.9365,0,0,0,0,0,-3.8769,-3.8848,-3.8833,-3.8848,-3.8922,-3.8987,-3.8996,-3.8988,-3.8951,-3.8989,-3.8999,-3.8972,-3.9101,-3.9058,-3.9073,-3.9126,-3.9257,-3.9266,-3.9273,-3.9333,-3.935,-3.9365,0,0,0,0,0,0,-3.8825,-3.8851,-3.8835,-3.8925,-3.8955,-3.8978,-3.9026,-3.9007,-3.9046,-3.9039,-3.9027,-3.9035,-3.9117,-3.913,-3.9081,-3.9226,-3.9173,-3.9185,-3.9213,-3.923,-3.9243,-3.9236,-3.9026,0,0,0,0,0,-3.8848,-3.8899,-3.8919,-3.8996,-3.9012,-3.9017,-3.9045,-3.9037,-3.9066,-3.9078,-3.9093,-3.9122,-3.917,-3.9201,-3.9246,-3.9342,-3.9347,-3.9386,-3.9399,-3.941,-3.9419,-3.9471,-3.9488,-3.9304,-3.9304,-3.9304,0,0,-3.8896,-3.8916,-3.8949,-3.9008,-3.903,-3.9082,-3.9027,-3.9085,-3.9123,-3.9086,-3.9161,-3.9174,-3.9206,-3.9294,-3.9333,-3.9307,-3.9472,-3.942,-3.9429,-3.9432,-3.9481,-3.9499,-3.9514,-3.931,-3.9309,-3.9308,0,0,-3.9009,-3.903,-3.9097,-3.912,-3.9154,-3.9158,-3.9174,-3.9202,-3.9209,-3.9284,-3.9257,-3.9304,-3.9386,-3.941,-3.9433,-3.9559,-3.9535,-3.9574,-3.9641,-3.9692,-3.9706,-3.9719,-3.9762,-3.9778,-3.9584,-3.9584,-3.9584,0,-3.9063,-3.9141,-3.9134,-3.9194,-3.9221,-3.9191,-3.9259,-3.9282,-3.9329,-3.9348,-3.9319,-3.9422,-3.9442,-3.9535,-3.9566,-3.9587,-3.9604,-3.9569,-3.9705,-3.9717,-3.9729,-3.9771,-3.9787,-3.9589,-3.9588,-3.9588,-3.9587,0,-3.9206,-3.9261,-3.9311,-3.9358,-3.9391,-3.9454,-3.9457,-3.9492,-3.9482,-3.9488,-3.9566,-3.9589,-3.9638,-3.966,-3.9651,-3.9753,-3.9735,-3.9706,-3.9652,-3.9751,-3.979,-3.9806,-3.9595,-3.9593,-3.9592,-3.9591,0,0,-3.9353,-3.9397,-3.9415,-3.9436,-3.9473,-3.9515,-3.9578,-3.9627,-3.9656,-3.9691,-3.9743,-3.9814,-3.9788,-3.9814,-3.9808,-3.9853,-3.9951,-3.9818,-3.9819,-3.984,-4.0063,-4.0083,-4.0102,-3.9937,-3.994,-3.9942,-4.006,0,-3.9466,-3.9576,-3.9572,-3.9674,-3.9724,-3.9699,-3.9754,-3.9783,-3.9792,-3.9836,-3.9846,-3.9896,-3.9858,-3.9874,-3.9918,-3.9929,-3.9995,-3.9921,-3.9984,-3.9986,-3.9973,-4.0122,-4.0143,-4.0253,-4.0075,-4.0078,-4.008,0,-3.9612,-3.9652,-3.9759,-3.979,-3.9811,-3.986,-3.9905,-3.9948,-3.9981,-3.9984,-4.0015,-4.0002,-4.0067,-4.0015,-4.0103,-4.0053,-4.0079,-4.0089,-4.0093,-4.0096,-4.0037,-4.0127,-4.0288,-4.0304,-4.0104,-4.0102,-4.01,0,-3.9706,-3.9787,-3.9862,-3.9881,-3.9919,-3.9954,-3.9972,-4.0001,-4.0031,-4.0071,-4.009,-4.0137,-4.0162,-4.0199,-4.02,-4.0162,-4.0289,-4.0237,-4.0293,-4.0293,-4.0318,-4.0316,-4.0483,-4.0339,-4.0339,-4.0339,-4.0338,0,-3.9832,-3.9898,-3.9905,-3.995,-4.0024,-4.002,-4.0094,-4.0108,-4.0135,-4.0183,-4.0165,-4.0211,-4.0209,-4.0256,-4.0257,-4.033,-4.0342,-4.0346,-4.0345,-4.0346,-4.0345,-4.0361,-4.0352,-4.0343,-4.0342,-4.0341,-4.0341,0,-3.9948,-3.9955,-4.0034,-4.0065,-4.0074,-4.0127,-4.0153,-4.0196,-4.0205,-4.0266,-4.028,-4.0294,-4.0348,-4.0353,-4.0416,-4.0417,-4.0504,-4.0496,-4.0493,-4.049,-4.0545,-4.0539,-4.0726,-4.075,-4.0593,-4.0595,-4.0596,0,-4.0026,-4.0076,-4.0112,-4.0144,-4.0163,-4.0214,-4.0244,-4.0244,-4.0277,-4.032,-4.0358,-4.0411,-4.0452,-4.054,-4.0555,-4.0604,-4.0595,-4.0658,-4.0602,-4.0602,-4.0594,-4.059,-4.0595,-4.0667,-4.0669,-4.067,-4.0672,0,-4.0163,-4.0165,-4.021,-4.0257,-4.0295,-4.0332,-4.0367,-4.0393,-4.0397,-4.0436,-4.0491,-4.0524,-4.0589,-4.0641,-4.0689,-4.0707,-4.069,-4.069,-4.0705,-4.0705,-4.07,-4.0702,-4.0519,-4.0684,-4.0683,-4.0682,-4.0681,-4.0681,-4.0261,-4.0305,-4.0338,-4.0389,-4.0415,-4.0449,-4.0491,-4.0506,-4.0552,-4.0605,-4.0603,-4.0664,-4.0697,-4.076,-4.0782,-4.083,-4.0809,-4.0831,-4.0837,-4.0842,-4.0846,-4.0695,-4.0839,-4.0839,-4.0838,-4.0838,-4.0838,0,-4.0396,-4.0417,-4.0464,-4.0514,-4.0554,-4.0537,-4.0575,-4.061,-4.0664,-4.0697,-4.0739,-4.0803,-4.0855,-4.0875,-4.0926,-4.096,-4.0954,-4.0973,-4.0969,-4.0974,-4.0863,-4.0844,-4.0977,-4.0977,-4.0977,-4.0977,-4.0977,-4.0977,-4.0471,-4.0544,-4.055,-4.0636,-4.0656,-4.0716,-4.0739,-4.077,-4.0796,-4.0869,-4.0912,-4.0925,-4.0954,-4.1006,-4.1053,-4.1058,-4.1076,-4.1099,-4.11,-4.0996,-4.0981,-4.0968,-4.095,-4.1103,-4.1103,-4.1206,-4.1207,-4.1208]},{"header":{"parameterUnit":"m.s-1","parameterCategory":1,"la1":30.2991,"la2":30.254,"lo1":-89.0895,"lo2":-89.0444,"dy":0.0017,"dx":0.0017,"nx":28,"ny":28,"refTime":"2025-06-04T09:00:00:Z","depth":0,"parameterNumber":3,"parameterNumberName":"V-component_of_WINDS"},"data":[0,0,0,0,0,0,0,0,0,0,0,0,0,0,0,0,0,0,0,0,0,0,0,0,0,0,0,0,0,0,0,0,0,0,0,0,0,0,0,0,0,0,0,0,0,0,0,0,0,0,0,0,0,0,0,0,0,0,2.9944,2.9945,0,3.0033,3.0034,3.0035,3.011,3.0111,3.0112,3.0112,3.0199,3.02,3.0202,0,0,0,0,0,0,0,0,0,0,0,0,0,2.9838,2.984,2.9944,2.9945,2.9947,3.0033,3.0034,3.0035,3.011,3.0111,3.0112,3.0113,3.0198,3.02,3.0202,0,0,0,0,0,0,0,0,0,0,0,0,0,2.9901,2.984,2.9944,2.9994,3.0,3.0032,3.0034,3.0035,3.0109,3.0111,3.0112,3.0113,3.0198,3.02,3.0202,3.0191,0,0,3.0209,3.021,0,0,0,0,0,0,0,0,2.9897,2.9905,2.9986,2.9991,2.9997,3.0062,3.0028,3.0087,3.0109,3.0068,3.0112,3.0114,3.0152,3.0158,3.0172,3.0195,3.0199,3.0209,3.0211,3.0212,3.0212,0,0,0,0,0,0,0,2.9893,2.9901,2.9979,2.9987,2.9994,3.0012,3.0022,3.004,3.0101,3.0071,3.0077,3.0087,3.0155,3.0169,3.0174,3.02,3.0209,3.0211,3.0213,3.0213,3.0221,3.022,0,0,0,0,0,0,2.9881,2.9897,2.9976,2.9982,2.9949,3.0013,3.0024,3.004,3.0102,3.0112,3.0086,3.009,3.0165,3.0171,3.0177,3.017,3.0212,3.0214,3.0215,3.0222,3.022,3.0219,0,0,0,0,0,0,2.9878,2.9887,2.9973,2.9941,2.9953,3.0013,3.003,3.0041,3.0055,3.0112,3.0123,3.0089,3.0166,3.0174,3.0188,3.0174,3.0215,3.0217,3.0223,3.0221,3.022,3.0154,0,0,0,0,0,0,2.9875,2.9886,2.9883,2.9941,2.9955,2.9982,3.0029,3.0041,3.0059,3.0066,3.0118,3.0128,3.0168,3.0184,3.019,3.0178,3.0219,3.0225,3.0222,3.022,3.0158,3.015,3.0144,0,0,0,0,0,2.9871,2.9859,2.9882,2.9891,2.9952,2.9981,2.9989,3.0036,3.0058,3.0055,3.0092,3.0126,3.0175,3.0185,3.0192,3.018,3.0226,3.0223,3.022,3.0161,3.0152,3.0144,0,0,0,0,0,0,2.9797,2.9868,2.9894,2.9901,2.9935,2.9994,2.9992,3.0025,3.0052,3.0057,3.0112,3.0124,3.0131,3.0157,3.0167,3.0174,3.0205,3.0203,3.0157,3.0149,3.0142,3.0136,3.022,0,0,0,0,0,2.9781,2.98,2.9861,2.9861,2.9877,2.9931,2.9945,2.9979,3.0015,3.003,3.0068,3.0101,3.0124,3.0138,3.0162,3.0162,3.0175,3.0158,3.0151,3.0145,3.0143,3.0147,3.014,3.021,3.021,3.021,0,0,2.9749,2.9791,2.9799,2.9847,2.9877,2.9895,2.9943,2.9958,2.9972,3.0032,3.0048,3.0077,3.0118,3.0125,3.013,3.0147,3.0127,3.0141,3.0136,3.0138,3.0143,3.0136,3.013,3.0209,3.0209,3.0209,0,0,2.97,2.9733,2.9738,2.9768,2.9814,2.985,2.9851,2.9906,2.9928,2.9945,2.9991,3.0007,3.0045,3.0073,3.0092,3.0056,3.0089,3.0062,3.0026,3.0029,3.0023,3.0018,3.0007,3.0001,3.006,3.006,3.006,0,2.9654,2.9684,2.9736,2.975,2.977,2.9827,2.9832,2.9858,2.9909,2.9921,2.994,2.999,3.0021,3.0037,3.0028,3.0041,3.0044,3.0056,3.002,3.0016,3.0012,3.0001,2.9997,3.0056,3.0057,3.0057,3.0057,0,2.9626,2.9645,2.9644,2.9694,2.9714,2.9723,2.9776,2.979,2.9822,2.9856,2.9873,2.9913,2.9947,2.9953,2.9984,2.9973,2.9983,3.001,3.0042,3.0001,2.9992,2.9988,3.0051,3.0052,3.0053,3.0054,0,0,2.9532,2.9612,2.961,2.9634,2.969,2.9705,2.9717,2.9753,2.9764,2.9797,2.9809,2.9841,2.9867,2.9888,2.9923,2.9925,2.9895,2.9952,2.9954,2.9941,2.9888,2.9868,2.9862,2.9918,2.9917,2.9917,2.9885,0,2.9492,2.9519,2.9567,2.9578,2.9598,2.9653,2.9663,2.9698,2.9731,2.9752,2.9787,2.981,2.9842,2.9855,2.986,2.9898,2.9885,2.9901,2.9929,2.993,2.9918,2.9858,2.9836,2.9804,2.9882,2.9881,2.9881,0,2.945,2.9482,2.9496,2.9552,2.9562,2.9571,2.9608,2.9627,2.9668,2.9692,2.9717,2.9755,2.9771,2.98,2.9822,2.9832,2.9846,2.9867,2.9867,2.9871,2.9903,2.9861,2.9795,2.9791,2.9875,2.9876,2.9876,0,2.9382,2.9428,2.9443,2.9462,2.9527,2.9532,2.9559,2.9602,2.962,2.9652,2.9665,2.9697,2.9715,2.9739,2.9785,2.9802,2.9803,2.9836,2.9823,2.9822,2.9821,2.9821,2.9757,2.9829,2.9829,2.9829,2.9829,0,2.9333,2.934,2.9414,2.9422,2.9432,2.9486,2.9493,2.9526,2.9563,2.9579,2.9628,2.9641,2.9701,2.9722,2.9757,2.9772,2.9779,2.9798,2.9808,2.9795,2.9792,2.9805,2.9809,2.9828,2.9828,2.9828,2.9829,0,2.9258,2.9308,2.9328,2.9389,2.9405,2.9408,2.9461,2.9471,2.9508,2.9527,2.9535,2.9591,2.9619,2.9667,2.9707,2.9731,2.9738,2.9754,2.9725,2.9731,2.9716,2.9717,2.9659,2.9655,2.9728,2.9727,2.9727,0,2.9225,2.9232,2.9294,2.9309,2.9335,2.9358,2.9378,2.9432,2.9451,2.9499,2.9504,2.9535,2.9564,2.9604,2.9648,2.968,2.9697,2.9675,2.9702,2.9689,2.9698,2.9698,2.9699,2.9668,2.9667,2.9666,2.9666,0,2.916,2.9185,2.9213,2.9249,2.9272,2.9303,2.9336,2.9345,2.9407,2.9425,2.9455,2.9477,2.9519,2.955,2.9588,2.9615,2.9651,2.9657,2.9656,2.9643,2.9626,2.9636,2.9709,2.9658,2.9659,2.9659,2.966,2.966,2.9106,2.9115,2.9161,2.9191,2.9222,2.9252,2.9266,2.9305,2.9331,2.9371,2.9401,2.9428,2.947,2.9525,2.9551,2.9573,2.9589,2.9587,2.9587,2.9586,2.9581,2.9622,2.958,2.958,2.958,2.958,2.9581,0,2.9045,2.9078,2.9105,2.9151,2.9174,2.9207,2.9246,2.9263,2.9287,2.9324,2.9351,2.9385,2.9416,2.9463,2.9497,2.9506,2.9523,2.9513,2.9513,2.9519,2.9564,2.9562,2.9498,2.9498,2.9498,2.9498,2.9498,2.9498,2.9016,2.9034,2.9065,2.9099,2.9131,2.916,2.9179,2.9208,2.9238,2.9274,2.9301,2.9332,2.9373,2.9411,2.944,2.9453,2.9464,2.9449,2.9467,2.9508,2.9516,2.9523,2.9522,2.945,2.945,2.9421,2.942,2.942]}]]